N0QWM Weather Reports


time (UTC)temp
F
wind
direction
speed
knots
gust
knots
rain 1hr
in
rain 24hr
in
rain mn
in
humidity
%
barometer
mb
20260504202753 78 293 0.9 1.7 0.00 0.00 0.00 41 1019.2
20260504202250 79 15 0.9 0.9 0.00 0.00 0.00 43 1019.3
20260504201747 78 268 0.9 0.9 0.00 0.00 0.00 42 1019.5
20260504201244 77 247 0.0 0.9 0.00 0.00 0.00 44 1019.3
20260504200742 77 354 0.9 0.9 0.00 0.00 0.00 43 1019.6
20260504200238 79 284 0.9 0.9 0.00 0.00 0.00 43 1019.1
20260504195735 79 76 0.0 0.0 0.00 0.00 0.00 43 1019.5
20260504195230 79 10 0.9 0.9 0.00 0.00 0.00 42 1019.6
20260504194728 79 132 1.7 1.7 0.00 0.00 0.00 41 1019.6
20260504194224 78 234 1.7 1.7 0.00 0.00 0.00 43 1019.8
20260504193720 79 240 1.7 2.6 0.00 0.00 0.00 41 1019.9
20260504193218 79 80 4.3 5.2 0.00 0.00 0.00 38 1020.0
20260504192716 79 350 0.9 0.9 0.00 0.00 0.00 41 1020.0
20260504192214 79 256 2.6 4.3 0.00 0.00 0.00 42 1020.1
20260504191712 79 267 1.7 2.6 0.00 0.00 0.00 41 1020.1
20260504191209 79 336 0.9 1.7 0.00 0.00 0.00 43 1020.3
20260504190704 78 235 0.0 0.0 0.00 0.00 0.00 44 1020.1
20260504190201 78 80 1.7 2.6 0.00 0.00 0.00 42 1020.3
20260504185657 79 176 1.7 1.7 0.00 0.00 0.00 45 1020.4
20260504185153 79 27 2.6 5.2 0.00 0.00 0.00 41 1020.6
20260504184650 79 235 0.9 1.7 0.00 0.00 0.00 45 1020.6
20260504184145 78 277 0.9 0.9 0.00 0.00 0.00 42 1020.7
20260504183642 77 286 0.0 0.0 0.00 0.00 0.00 41 1020.6
20260504183139 77 275 0.9 0.9 0.00 0.00 0.00 46 1020.7
20260504182637 78 300 0.9 0.9 0.00 0.00 0.00 49 1020.7
20260504182134 78 184 1.7 1.7 0.00 0.00 0.00 44 1021.0
20260504181632 77 269 2.6 4.3 0.00 0.00 0.00 46 1021.1
20260504181129 77 303 1.7 1.7 0.00 0.00 0.00 46 1020.9
20260504180629 77 211 2.6 4.3 0.00 0.00 0.00 47 1021.0
20260504180127 75 226 1.7 2.6 0.00 0.00 0.00 48 1021.1
20260504175623 76 253 0.9 1.7 0.00 0.00 0.00 46 1021.2
20260504175120 77 301 2.6 2.6 0.00 0.00 0.00 46 1021.3
20260504174619 77 276 1.7 1.7 0.00 0.00 0.00 47 1021.3
20260504174114 76 333 1.7 1.7 0.00 0.00 0.00 46 1021.3
20260504173612 76 169 0.0 0.9 0.00 0.00 0.00 48 1021.5
20260504173109 75 104 0.9 0.9 0.00 0.00 0.00 47 1021.6
20260504172605 77 77 2.6 4.3 0.00 0.00 0.00 46 1021.4
20260504172102 77 273 0.9 0.9 0.00 0.00 0.00 46 1021.6
20260504171558 77 250 0.9 0.9 0.00 0.00 0.00 46 1021.5
20260504171056 77 260 1.7 1.7 0.00 0.00 0.00 46 1021.7
20260504170551 76 326 0.9 0.9 0.00 0.00 0.00 47 1021.8
20260504150930 71 28 0.9 0.9 0.00 0.00 0.00 56 1022.7
20260504150426 71 253 2.6 2.6 0.00 0.00 0.00 54 1022.7
20260504140853 64 284 0.9 0.9 0.00 0.00 0.00 68 1023.3
20260504140349 64 354 0.0 0.0 0.00 0.00 0.00 71 1023.1
20260504130818 53 264 0.0 0.0 0.00 0.00 0.00 91 1023.4
20260504130314 52 263 0.0 0.0 0.00 0.00 0.00 93 1023.4
20260504120237 46 263 0.0 0.0 0.00 0.00 0.00 99 1023.0
20260504110705 44 263 0.0 0.0 0.00 0.00 0.00 99 1022.6
20260504110201 44 263 0.0 0.0 0.00 0.00 0.00 99 1022.8
20260504100119 45 263 0.0 0.0 0.00 0.00 0.00 99 1022.8
20260504081512 47 263 0.0 0.0 0.00 0.00 0.00 99 1022.3
20260504081008 47 263 0.0 0.0 0.00 0.00 0.00 99 1022.5
20260504080504 47 263 0.0 0.0 0.00 0.00 0.00 99 1022.6
20260504050317 50 262 0.0 0.0 0.00 0.00 0.00 93 1023.5
20260504045814 50 263 0.0 0.0 0.00 0.00 0.00 93 1023.7
20260504045315 50 263 0.0 0.0 0.00 0.00 0.00 93 1023.6
20260504044812 50 263 0.0 0.0 0.00 0.00 0.00 93 1023.9
20260504044309 50 263 0.0 0.0 0.00 0.00 0.00 93 1023.7
20260504043807 50 263 0.0 0.0 0.00 0.00 0.00 92 1023.8
20260504043303 51 263 0.0 0.0 0.00 0.00 0.00 92 1024.0
20260504042801 51 262 0.0 0.0 0.00 0.00 0.00 91 1023.7
20260504042257 51 262 0.0 0.0 0.00 0.00 0.00 91 1023.8
20260504041754 51 262 0.0 0.0 0.00 0.00 0.00 90 1023.7
20260504041250 51 263 0.0 0.0 0.00 0.00 0.00 89 1023.7
20260504040746 51 263 0.0 0.0 0.00 0.00 0.00 89 1023.9
20260504040244 52 263 0.0 0.0 0.00 0.00 0.00 89 1023.8
20260504035739 51 262 0.0 0.0 0.00 0.00 0.00 88 1023.9
20260504035237 52 262 0.0 0.0 0.00 0.00 0.00 87 1023.9
20260504034734 52 262 0.0 0.0 0.00 0.00 0.00 86 1024.2
20260504034231 52 262 0.0 0.0 0.00 0.00 0.00 86 1023.9
20260504033729 52 262 0.0 0.0 0.00 0.00 0.00 86 1024.2
20260504033226 52 262 0.0 0.0 0.00 0.00 0.00 85 1024.0
20260504032723 53 262 0.0 0.0 0.00 0.00 0.00 85 1024.2
20260504032220 53 262 0.0 0.0 0.00 0.00 0.00 84 1024.2
20260504031716 53 262 0.0 0.0 0.00 0.00 0.00 83 1024.1
20260504031214 53 262 0.0 0.0 0.00 0.00 0.00 83 1024.1
20260504030709 53 262 0.0 0.0 0.00 0.00 0.00 83 1024.0
20260504030207 54 262 0.0 0.0 0.00 0.00 0.00 82 1024.1
20260504025703 54 262 0.0 0.0 0.00 0.00 0.00 81 1023.8
20260504025200 54 262 0.0 0.0 0.00 0.00 0.00 81 1023.9
20260504024657 54 262 0.0 0.0 0.00 0.00 0.00 80 1024.1
20260504024154 55 262 0.0 0.0 0.00 0.00 0.00 79 1023.8
20260504023650 55 262 0.0 0.0 0.00 0.00 0.00 79 1023.8
20260504023146 55 262 0.0 0.0 0.00 0.00 0.00 79 1023.8
20260504022643 55 262 0.0 0.0 0.00 0.00 0.00 78 1023.6
20260504022139 56 262 0.0 0.0 0.00 0.00 0.00 76 1023.7
20260504021637 56 262 0.0 0.0 0.00 0.00 0.00 74 1023.5
20260504021133 56 264 0.0 0.0 0.00 0.00 0.00 74 1023.4
20260504020631 56 264 0.0 0.0 0.00 0.00 0.00 75 1023.9
20260504020126 57 264 0.0 0.0 0.00 0.00 0.00 75 1023.6
20260504015623 57 264 0.0 0.0 0.00 0.00 0.00 73 1023.5
20260504015120 57 264 0.0 0.0 0.00 0.00 0.00 72 1023.4
20260504014615 57 264 0.0 0.0 0.00 0.00 0.00 72 1023.5
20260504014113 58 264 0.0 0.0 0.00 0.00 0.00 72 1023.5
20260504013610 58 264 0.0 0.0 0.00 0.00 0.00 71 1023.3
20260504013107 59 264 0.0 0.0 0.00 0.00 0.00 69 1023.1
20260504012604 59 264 0.0 0.0 0.00 0.00 0.00 67 1023.3
20260504012102 59 264 0.0 0.0 0.00 0.00 0.00 68 1023.4
20260504011559 59 264 0.0 0.0 0.00 0.00 0.00 67 1023.4
20260504011055 60 264 0.0 0.0 0.00 0.00 0.00 67 1023.1
20260504010550 60 264 0.0 0.0 0.00 0.00 0.00 65 1022.9
20260504010047 60 264 0.0 0.0 0.00 0.00 0.00 65 1022.9
20260504005544 61 264 0.0 0.0 0.00 0.00 0.00 64 1022.8
20260504005041 62 264 0.0 0.0 0.00 0.00 0.00 62 1023.1
20260504004539 62 263 0.0 0.9 0.00 0.00 0.00 60 1023.1
20260504004036 62 263 0.0 0.0 0.00 0.00 0.00 59 1023.0
20260504003532 63 268 0.0 0.0 0.00 0.00 0.00 59 1022.8
20260504003029 64 268 0.0 0.0 0.00 0.00 0.00 57 1022.7
20260504002526 64 268 0.0 0.9 0.00 0.00 0.00 55 1022.9
20260504002023 65 288 0.0 0.9 0.00 0.00 0.00 54 1022.7
20260504001521 65 288 0.0 0.0 0.00 0.00 0.00 55 1022.9
20260504001011 66 290 0.0 0.0 0.00 0.00 0.00 52 1022.8
20260504000509 66 290 0.0 0.0 0.00 0.00 0.00 50 1022.6
20260504000006 67 291 0.0 0.0 0.00 0.00 0.00 49 1022.8
20260503235504 67 291 0.0 0.9 0.00 0.00 0.00 48 1022.7
20260503235001 67 290 0.0 0.0 0.00 0.00 0.00 46 1022.6
20260503234458 68 291 0.0 0.0 0.00 0.00 0.00 47 1022.7
20260503233956 68 288 0.9 0.9 0.00 0.00 0.00 46 1022.5
20260503233452 68 289 0.0 0.0 0.00 0.00 0.00 47 1022.5
20260503232949 68 225 0.9 0.9 0.00 0.00 0.00 45 1022.7
20260503232446 68 283 0.0 0.0 0.00 0.00 0.00 47 1022.8
20260503231944 69 289 0.0 0.9 0.00 0.00 0.00 44 1022.7
20260503231441 69 299 0.0 0.0 0.00 0.00 0.00 44 1022.8
20260503230937 69 316 0.0 0.9 0.00 0.00 0.00 45 1022.8
20260503230434 69 289 0.9 1.7 0.00 0.00 0.00 45 1022.6
20260503225931 70 289 0.9 0.9 0.00 0.00 0.00 44 1022.7
20260503225428 70 256 2.6 2.6 0.00 0.00 0.00 41 1022.8
20260503224924 70 315 0.9 0.9 0.00 0.00 0.00 45 1022.9
20260503224421 70 270 1.7 1.7 0.00 0.00 0.00 42 1023.0
20260503223919 71 190 0.9 0.9 0.00 0.00 0.00 42 1022.9
20260503223416 71 292 2.6 2.6 0.00 0.00 0.00 41 1022.5
20260503222917 71 303 0.9 1.7 0.00 0.00 0.00 42 1022.8
20260503222415 71 304 0.9 1.7 0.00 0.00 0.00 40 1022.9
20260503221914 71 244 2.6 2.6 0.00 0.00 0.00 40 1023.0
20260503221412 71 270 1.7 1.7 0.00 0.00 0.00 40 1023.1
20260503220908 71 332 0.9 0.9 0.00 0.00 0.00 40 1023.0
20260503220404 71 239 1.7 2.6 0.00 0.00 0.00 38 1023.0
20260503215901 72 299 0.0 0.0 0.00 0.00 0.00 41 1023.0
20260503215358 72 299 0.9 0.9 0.00 0.00 0.00 42 1023.2
20260503214855 71 257 0.0 0.9 0.00 0.00 0.00 39 1023.1
20260503214353 71 300 0.9 0.9 0.00 0.00 0.00 42 1023.2
20260503213850 72 284 0.9 1.7 0.00 0.00 0.00 42 1023.1
20260503213348 73 282 0.0 0.0 0.00 0.00 0.00 40 1023.2
20260503212845 72 240 1.7 1.7 0.00 0.00 0.00 41 1023.2
20260503212343 71 231 2.6 2.6 0.00 0.00 0.00 39 1023.5
20260503211839 72 305 0.9 0.9 0.00 0.00 0.00 40 1023.4
20260503211336 72 317 0.9 1.7 0.00 0.00 0.00 42 1023.7
20260503210831 72 220 0.9 0.9 0.00 0.00 0.00 39 1023.8
20260503210329 72 296 0.0 0.9 0.00 0.00 0.00 42 1023.7
20260503205824 72 267 2.6 2.6 0.00 0.00 0.00 44 1023.7
20260503205320 71 320 0.9 1.7 0.00 0.00 0.00 43 1023.7
20260503204817 72 283 0.0 0.0 0.00 0.00 0.00 43 1023.7
20260503204314 73 241 2.6 2.6 0.00 0.00 0.00 41 1024.0
20260503203811 73 270 2.6 2.6 0.00 0.00 0.00 43 1024.0
20260503203309 71 270 3.5 5.2 0.00 0.00 0.00 41 1024.0